Hourly Data Report for October 24, 2014

All times are specified in Local Standard Time (LST). Add 1 hour to adjust for Daylight Saving Time where and when it is observed.

KITCHENER/WATERLOO
ONTARIO

43°27'39.000" N
80°22'43.000" W
321.60 m
6144239
71368
YKF

Download Data

Hourly Data (October 2014)
Hourly Data Report for October 24, 2014
Temp Definition
°C
Dew Point Temp Definition
°C
Rel Hum Definition
%
Wind Dir Definition
10's deg

Wind Spd Definition
km/h
Visibility Definition
km
Stn Press Definition
kPa
Hmdx Definition


Wind Chill Definition


Weather Definition


TIME
00:00 Legend Double Dagger 2.0 1.4 96 30 9 16.1 97.98     LegendNANA
01:00 Legend Double Dagger 0.8 0.5 98 30 8 8.1 97.97     Fog
02:00 Legend Double Dagger 1.0 0.7 98 31 8 4.0 97.96     Fog
03:00 Legend Double Dagger -0.9 -1.0 99 29 8 0.8 97.93   -4 Freezing Fog
04:00 Legend Double Dagger -0.4 -0.5 99 30 11 1.6 97.95   -4 Fog
05:00 Legend Double Dagger 0.1 0.0 99 36 5 11.3 97.95     LegendNANA
06:00 Legend Double Dagger -2.5 -2.6 99 29 9 0.4 97.92   -6 Freezing Fog
07:00 Legend Double Dagger 1.3 1.2 99 33 11 2.8 97.95     Fog
08:00 Legend Double Dagger 2.7 2.4 98 36 5 3.6 97.96     Fog
09:00 Legend Double Dagger 3.7 3.4 98 33 15 1.2 97.99     Fog
10:00 Legend Double Dagger 4.5 4.2 98 31 5 4.0 97.98     Fog
11:00 Legend Double Dagger 6.6 5.4 92 30 8 11.3 97.93     LegendNANA
12:00 Legend Double Dagger 11.0 6.1 72 26 11 16.1 97.83     LegendNANA
13:00 Legend Double Dagger 12.9 6.4 65 31 18 16.1 97.73     LegendNANA
14:00 Legend Double Dagger 13.6 6.7 63 30 15 16.1 97.67     LegendNANA
15:00 Legend Double Dagger 14.5 6.1 57 28 13 16.1 97.60     LegendNANA
16:00 Legend Double Dagger 14.5 4.4 50 26 17 16.1 97.58     LegendNANA
17:00 Legend Double Dagger 11.9 4.1 59 29 9 16.1 97.60     LegendNANA
18:00 Legend Double Dagger 11.4 4.7 63 29 11 16.1 97.61     LegendNANA
19:00 Legend Double Dagger 11.4 5.8 68 30 9 16.1 97.63     LegendNANA
20:00 Legend Double Dagger 11.1 6.3 72 29 9 16.1 97.60     LegendNANA
21:00 Legend Double Dagger 10.9 6.1 72 25 8 16.1 97.57     LegendNANA
22:00 Legend Double Dagger 10.6 6.1 73 18 5 16.1 97.56     LegendNANA
23:00 Legend Double Dagger 10.1 5.8 75   0 16.1 97.53     LegendNANA

Notes on Data Quality.

Legend

  • E = Estimated
  • M = Missing
  • NA = Not Available
  • ‡ = Partner data that is not subject to review by the National Climate Archives
Date modified: